Погода в Частой Дубраве

Россия / Липецкая область     52°32′52″N   39°16′33″E
темп.,
°C
ветер,
м/с
пор.,
м/с
влажн.,
%
обл.,
%
осадки,
мм/ч
давл.,
гПа
погр.,
м
17 апреля, сб
сб1700:00+10сз116896 0.0 101910
03:00+9с2272100 0.0 101810
06:00+9всв3572100 0.0 101796
09:00+9зюз5674100 0.0 1018383
12:00+8зсз2188100 2.9 1018176
15:00+9ююв2486100 5.2 1018421
18:00+9юз2376100 1.3 1018675
21:00+7зюз1185100 1.3 101812
18 апреля, вс
вс1800:00+6с00895 0.0 101810
03:00+5юв22935 0.0 101816
06:00+4ююз229276 0.0 101929
09:00+8ююз34747 0.0 1019554
12:00+10ю4559100 0.3 10191473
15:00+11ю3454100 0.4 10191446
18:00+11юв3460100 0.0 1018324
21:00+9в3572100 0.0 1019109
19 апреля, пн
пн1900:00+8ю2578100 0.0 1019161
03:00+7всв3479100 0.0 101879
06:00+7в258197 0.1 1018128
09:00+10вюв246786 0.3 1018550
12:00+12юв2357100 0.8 10171204
15:00+12вюв3458100 2.6 10171300
18:00+8в0390100 8.9 1017457
21:00+8в71188100 15.5 1018636
20 апреля, вт
вт2000:00+7в6119051 0.6 1018477
03:00+5в5119560 0.6 1018349
06:00+6в6129798 0.1 1017418
09:00+8в81289100 0.3 1016697
12:00+7в81390100 0.2 1016712
15:00+5всв101893100 2.9 1010812
18:00+6в112193100 15.7 10051155
21:00+9вюв142788100 25.3 10001325
21 апреля, ср
ср2100:00+11ююв81591100 1.0 10001024
03:00+9ююв8168598 1.5 1001763
06:00+8ююв101789100 1.0 10001353
09:00+8ю101692100 2.2 10021342
12:00+5ююз101585100 0.3 10071227
15:00+6юз91583100 0.3 10111247
18:00+7юз71379100 0.1 10151226
21:00+7ююз51185100 0.1 1018500